Regional Weather Roundup
Issued by NWS

Home | Current Version | Previous Version | Graphics & Text | Print | Product List | Glossary On
Versions: 1 2 3 4 5 6 7 8 9 10 11 12 13 14 15 16 17 18 19 20 21 22 23 24 25 26 27 28 29 30 31 32 33 34 35 36 37 38 39 40 41 42 43 44 45 46 47 48 49 50
000
ASUS44 KMEG 030100
RWRTN
TENNESSEE HOURLY STATE WEATHER ROUNDUP
NATIONAL WEATHER SERVICE MEMPHIS TN
800 PM CDT WED SEP 02 2015

TNZ002-004-019-021-049-052-054-088>092-030200-
WEST TENNESSEE

CITY           SKY/WX    TMP DP  RH WIND       PRES   REMARKS
MEMPHIS INTL   PTCLDY    79  72  79 S3        29.99F
NWS MEMPHIS      N/A    N/A N/A N/A MISG        N/A
JACKSON        CLEAR     78  73  84 CALM      30.00F
DYERSBURG      CLEAR     79  73  83 CALM      29.99S
UNION CITY     CLEAR     79  72  78 CALM      29.98S
PARIS          CLEAR     75  70  83 CALM      30.01S
LEXINGTON      CLEAR     75  73  94 E3        30.00S
$$

TNZ008-025-027-028-033-062-065-066-030200-
NORTH MIDDLE TENNESSEE

CITY           SKY/WX    TMP DP  RH WIND       PRES   REMARKS
NASHVILLE      CLOUDY    85  67  54 SW3       30.01S
CLARKSVILLE    CLEAR     80  68  66 N3        30.00S
COOKEVILLE     CLEAR     73  72  94 CALM      30.04R
CROSSVILLE     MOCLDY    75  69  81 CALM      30.09S
$$

TNZ061-075-076-078-094-096-097-030200-
SOUTH MIDDLE TENNESSEE

CITY           SKY/WX    TMP DP  RH WIND       PRES   REMARKS
FAYETTEVILLE   CLEAR     77  72  83 CALM      30.03S
TULLAHOMA      CLEAR     79  72  78 CALM      30.05S
WINCHESTER     CLEAR     77  73  88 CALM      30.04S
MCMINNVILLE    CLEAR     75  73  94 CALM      30.04S
COLUMBIA       CLEAR     81  77  89 CALM      30.00F
SHELBYVILLE    CLEAR     77  73  88 CALM      30.03S
$$

TNZ017-018-042-046-047-030200-
NORTHEAST TENNESSEE

CITY           SKY/WX    TMP DP  RH WIND       PRES   REMARKS
TRI CITIES     PTCLDY    74  68  81 CALM      30.05R
ELIZABETHTON   CLEAR     70  64  83 CALM      30.06S
$$

TNZ012-013-036-069-073-074-030200-
CENTRAL EAST TENNESSEE

CITY           SKY/WX    TMP DP  RH WIND       PRES   REMARKS
KNOXVILLE      MOCLDY    79  68  69 CALM      30.02R
OAK RIDGE      PTCLDY    79  72  79 CALM      30.04R
GATLINBURG     CLEAR     81  64  57 CALM      30.02R
$$

TNZ083-085-099-030200-
SOUTHEAST TENNESSEE

CITY           SKY/WX    TMP DP  RH WIND       PRES   REMARKS
CHATTANOOGA    CLOUDY    81  72  74 CALM      30.02R
$$

SKY/WX REPORTED AS FAIR MEANS FEW OR NO CLOUDS BELOW
12 THOUSAND FEET.



USA.gov is the U.S. government's official web portal to all federal, state and local government web resources and services.